Погода в Тресково

Россия / Республика Бурятия     52°03′28″N   106°54′07″E
темп.,
°C
ветер,
м/с
пор.,
м/с
влажн.,
%
обл.,
%
осадки,
мм/ч
давл.,
гПа
погр.,
м
24 мая, вт
вт2423:00+5з01962 0.0 102213
02:00+4юз11920 0.0 102311
05:00+4ю11920 0.0 102510
08:00+12сз12540 0.0 1025537
11:00+17сз22341 0.0 10251649
14:00+20ссз44291 0.0 10232242
17:00+19сз423228 0.0 10221432
20:00+14зюз114583 0.0 102211
25 мая, ср
ср2523:00+11ююв1151100 0.0 102312
02:00+10ююв1152100 0.0 102311
05:00+8юз1156100 0.0 102310
08:00+12зсз2248100 0.0 1024253
11:00+18сз323225 0.0 10211107
14:00+21сз242747 0.0 10182418
17:00+22ссз33254 0.0 10152513
20:00+15з11480 0.0 101514
26 мая, чт
чт2623:00+12ююв115698 0.0 101412
02:00+12ююв224885 0.0 101230
05:00+11ююв334913 0.0 101145
08:00+18з12330 0.0 1009503
11:00+21зсз463197 0.0 1007913
14:00+23сз592435 0.0 10051791
17:00+23зсз7122524 0.0 10032355
20:00+18сз511425 0.0 10051181
27 мая, пт
пт2723:00+10зюз227115 0.0 100718
02:00+10з256811 0.0 1007280
05:00+8зсз39750 0.0 1008450
08:00+11сз5105832 0.0 10081268
11:00+15сз68415 0.0 10071695
14:00+17ссз573016 0.0 10062233
17:00+17ссз3827100 0.0 10052427
20:00+12сз224566 0.0 100436
28 мая, сб
сб2823:00+8ююв1157100 0.0 100510
02:00+7юв115669 0.0 100511
05:00+5зсз1165100 0.0 100621
08:00+8зсз345494 0.0 1006551
11:00+10сз6103599 0.0 10081494
14:00+12ссз710265 0.0 10072288
17:00+12ссз610267 0.0 10082515
20:00+9сз373893 0.0 1010808